contact:dominique.lefevre@mio.osupytheas.fr, maurice.libes@osupytheas.fr, didier.mallarino@osupytheas.fr
Project:EMSO http://www.emso-fr.org/EMSO-France
Depth: 2436.0 m
Title:EMSO Ligure Ouest : Data MII capteur MICROCAT
DateTime_Computer,Latitude,Longitude,Temperature,Conductivity,Pressure,DateTime_Instrument
DateTime_Computer,Latitude,Longitude,degC,S m-1,dbar,DateTime_Instrument
2022-02-06T00:00:00Z,42.805,6.029,13.3008,4.60062,2470.04,2022-2-06T02:01:32Z
2022-02-06T00:03:03Z,42.805,6.029,13.3002,4.60039,2470.007,2022-2-06T02:04:35Z
2022-02-06T00:06:06Z,42.805,6.029,13.3003,4.60051,2470.04,2022-2-06T02:07:39Z
2022-02-06T00:09:09Z,42.805,6.029,13.3003,4.60035,2470.077,2022-2-06T02:10:42Z
2022-02-06T00:12:12Z,42.805,6.029,13.3010,4.60047,2470.04,2022-2-06T02:13:45Z
2022-02-06T00:15:15Z,42.805,6.029,13.3003,4.60050,2470.04,2022-2-06T02:16:48Z
2022-02-06T00:18:18Z,42.805,6.029,13.3004,4.60049,2470.04,2022-2-06T02:19:51Z
2022-02-06T00:21:21Z,42.805,6.029,13.3001,4.60044,2470.04,2022-2-06T02:22:54Z
2022-02-06T00:24:25Z,42.805,6.029,13.3003,4.60049,2470.04,2022-2-06T02:25:57Z
2022-02-06T00:27:28Z,42.805,6.029,13.3007,4.60041,2470.03,2022-2-06T02:29:00Z
2022-02-06T00:30:31Z,42.805,6.029,13.3007,4.60049,2470.04,2022-2-06T02:32:04Z
2022-02-06T00:33:34Z,42.805,6.029,13.3004,4.60048,2470.04,2022-2-06T02:35:07Z
2022-02-06T00:36:37Z,42.805,6.029,13.3005,4.60040,2470.04,2022-2-06T02:38:10Z
2022-02-06T00:39:40Z,42.805,6.029,13.3009,4.60044,2470.017,2022-2-06T02:41:13Z
2022-02-06T00:42:43Z,42.805,6.029,13.3001,4.60050,2470.053,2022-2-06T02:44:16Z
2022-02-06T00:45:46Z,42.805,6.029,13.3008,4.60049,2470.017,2022-2-06T02:47:19Z
2022-02-06T00:48:49Z,42.805,6.029,13.3005,4.60039,2470.053,2022-2-06T02:50:22Z
2022-02-06T00:51:53Z,42.805,6.029,13.3004,4.60052,2470.04,2022-2-06T02:53:25Z
2022-02-06T00:54:56Z,42.805,6.029,13.3001,4.60039,2469.993,2022-2-06T02:56:28Z
2022-02-06T00:57:59Z,42.805,6.029,13.3004,4.60039,2470.053,2022-2-06T02:59:32Z
2022-02-06T01:01:02Z,42.805,6.029,13.3004,4.60036,2470.017,2022-2-06T03:02:35Z
2022-02-06T01:04:05Z,42.805,6.029,13.3009,4.60040,2469.993,2022-2-06T03:05:38Z
2022-02-06T01:07:08Z,42.805,6.029,13.3004,4.60045,2469.993,2022-2-06T03:08:41Z
2022-02-06T01:10:11Z,42.805,6.029,13.3003,4.60035,2470.017,2022-2-06T03:11:44Z
2022-02-06T01:13:14Z,42.805,6.029,13.2999,4.60029,2469.993,2022-2-06T03:14:47Z
2022-02-06T01:16:18Z,42.805,6.029,13.3000,4.60041,2470.017,2022-2-06T03:17:50Z
2022-02-06T01:19:21Z,42.805,6.029,13.3000,4.60039,2469.993,2022-2-06T03:20:53Z
2022-02-06T01:22:24Z,42.805,6.029,13.3006,4.60038,2469.993,2022-2-06T03:23:57Z
2022-02-06T01:25:27Z,42.805,6.029,13.3004,4.60039,2469.993,2022-2-06T03:27:00Z
2022-02-06T01:28:30Z,42.805,6.029,13.2999,4.60043,2469.993,2022-2-06T03:30:03Z
2022-02-06T01:31:33Z,42.805,6.029,13.3002,4.60035,2469.97,2022-2-06T03:33:06Z
2022-02-06T01:34:36Z,42.805,6.029,13.3005,4.60044,2470.017,2022-2-06T03:36:09Z
2022-02-06T01:37:39Z,42.805,6.029,13.3006,4.60043,2469.97,2022-2-06T03:39:12Z
2022-02-06T01:40:42Z,42.805,6.029,13.3002,4.60037,2469.993,2022-2-06T03:42:15Z
2022-02-06T01:43:46Z,42.805,6.029,13.3003,4.60036,2469.993,2022-2-06T03:45:18Z
2022-02-06T01:46:49Z,42.805,6.029,13.2999,4.60033,2470.007,2022-2-06T03:48:21Z
2022-02-06T01:49:52Z,42.805,6.029,13.3000,4.60033,2469.984,2022-2-06T03:51:25Z
2022-02-06T01:52:55Z,42.805,6.029,13.3005,4.60038,2470.017,2022-2-06T03:54:28Z
2022-02-06T01:55:58Z,42.805,6.029,13.3006,4.60041,2469.993,2022-2-06T03:57:31Z
2022-02-06T01:59:01Z,42.805,6.029,13.3001,4.60038,2469.97,2022-2-06T04:00:34Z
2022-02-06T02:02:04Z,42.805,6.029,13.3000,4.60031,2470.017,2022-2-06T04:03:37Z
2022-02-06T02:05:07Z,42.805,6.029,13.3001,4.60044,2470.007,2022-2-06T04:06:40Z
2022-02-06T02:08:11Z,42.805,6.029,13.3002,4.60036,2469.97,2022-2-06T04:09:43Z
2022-02-06T02:11:14Z,42.805,6.029,13.2998,4.60047,2470.04,2022-2-06T04:12:46Z
2022-02-06T02:14:17Z,42.805,6.029,13.3003,4.60039,2469.993,2022-2-06T04:15:50Z
2022-02-06T02:17:20Z,42.805,6.029,13.3004,4.60049,2470.03,2022-2-06T04:18:53Z
2022-02-06T02:20:23Z,42.805,6.029,13.3003,4.60034,2470.03,2022-2-06T04:21:56Z
2022-02-06T02:23:26Z,42.805,6.029,13.3000,4.60044,2469.993,2022-2-06T04:24:59Z
2022-02-06T02:26:29Z,42.805,6.029,13.3000,4.60039,2470.053,2022-2-06T04:28:02Z
2022-02-06T02:29:32Z,42.805,6.029,13.3004,4.60046,2470.04,2022-2-06T04:31:05Z
2022-02-06T02:32:35Z,42.805,6.029,13.3006,4.60046,2469.993,2022-2-06T04:34:08Z
2022-02-06T02:35:39Z,42.805,6.029,13.2999,4.60059,2470.03,2022-2-06T04:37:11Z
2022-02-06T02:38:42Z,42.805,6.029,13.3004,4.60039,2470.03,2022-2-06T04:40:14Z
2022-02-06T02:41:45Z,42.805,6.029,13.3003,4.60035,2470.007,2022-2-06T04:43:18Z
2022-02-06T02:44:48Z,42.805,6.029,13.3010,4.60044,2470.007,2022-2-06T04:46:21Z
2022-02-06T02:47:51Z,42.805,6.029,13.3004,4.60040,2470.04,2022-2-06T04:49:24Z
2022-02-06T02:50:54Z,42.805,6.029,13.3004,4.60037,2470.04,2022-2-06T04:52:27Z
2022-02-06T02:53:57Z,42.805,6.029,13.3010,4.60038,2470.04,2022-2-06T04:55:30Z
2022-02-06T02:57:00Z,42.805,6.029,13.3002,4.60038,2470.03,2022-2-06T04:58:33Z
2022-02-06T03:00:04Z,42.805,6.029,13.3000,4.60036,2470.03,2022-2-06T05:01:36Z
2022-02-06T03:03:07Z,42.805,6.029,13.3003,4.60033,2470.077,2022-2-06T05:04:39Z
2022-02-06T03:06:10Z,42.805,6.029,13.3002,4.60033,2470.04,2022-2-06T05:07:43Z
2022-02-06T03:09:13Z,42.805,6.029,13.3002,4.60040,2470.04,2022-2-06T05:10:46Z
2022-02-06T03:12:16Z,42.805,6.029,13.3007,4.60043,2469.993,2022-2-06T05:13:49Z
2022-02-06T03:15:19Z,42.805,6.029,13.3003,4.60032,2470.053,2022-2-06T05:16:52Z
2022-02-06T03:18:22Z,42.805,6.029,13.3000,4.60033,2470.03,2022-2-06T05:19:55Z
2022-02-06T03:21:25Z,42.805,6.029,13.3001,4.60039,2470.03,2022-2-06T05:22:58Z
2022-02-06T03:24:28Z,42.805,6.029,13.3004,4.60051,2469.984,2022-2-06T05:26:01Z
2022-02-06T03:27:32Z,42.805,6.029,13.3000,4.60042,2469.993,2022-2-06T05:29:04Z
2022-02-06T03:30:35Z,42.805,6.029,13.3004,4.60043,2470.053,2022-2-06T05:32:07Z
2022-02-06T03:33:38Z,42.805,6.029,13.3004,4.60037,2470.017,2022-2-06T05:35:11Z
2022-02-06T03:36:41Z,42.805,6.029,13.3000,4.60037,2470.007,2022-2-06T05:38:14Z
2022-02-06T03:39:44Z,42.805,6.029,13.2997,4.60039,2470.053,2022-2-06T05:41:17Z
2022-02-06T03:42:47Z,42.805,6.029,13.2998,4.60055,2470.017,2022-2-06T05:44:20Z
2022-02-06T03:45:50Z,42.805,6.029,13.3002,4.60040,2470.053,2022-2-06T05:47:23Z
2022-02-06T03:48:53Z,42.805,6.029,13.3005,4.60036,2469.993,2022-2-06T05:50:26Z
2022-02-06T03:51:57Z,42.805,6.029,13.2996,4.60035,2470.053,2022-2-06T05:53:29Z
2022-02-06T03:55:00Z,42.805,6.029,13.3005,4.60077,2470.03,2022-2-06T05:56:32Z
2022-02-06T03:58:03Z,42.805,6.029,13.3006,4.60043,2470.053,2022-2-06T05:59:36Z
2022-02-06T04:01:06Z,42.805,6.029,13.3002,4.60033,2470.04,2022-2-06T06:02:39Z
2022-02-06T04:04:09Z,42.805,6.029,13.3004,4.60042,2470.04,2022-2-06T06:05:42Z
2022-02-06T04:07:12Z,42.805,6.029,13.3003,4.60044,2470.04,2022-2-06T06:08:45Z
2022-02-06T04:10:15Z,42.805,6.029,13.3005,4.60039,2470.04,2022-2-06T06:11:48Z
2022-02-06T04:13:18Z,42.805,6.029,13.3001,4.60042,2470.063,2022-2-06T06:14:51Z
2022-02-06T04:16:21Z,42.805,6.029,13.3005,4.60053,2470.053,2022-2-06T06:17:54Z
2022-02-06T04:19:25Z,42.805,6.029,13.3000,4.60044,2470.017,2022-2-06T06:20:57Z
2022-02-06T04:22:28Z,42.805,6.029,13.3004,4.60059,2470.053,2022-2-06T06:24:00Z
2022-02-06T04:25:31Z,42.805,6.029,13.2998,4.60041,2470.04,2022-2-06T06:27:04Z
2022-02-06T04:28:34Z,42.805,6.029,13.3002,4.60033,2470.053,2022-2-06T06:30:07Z
2022-02-06T04:31:37Z,42.805,6.029,13.3000,4.60035,2470.053,2022-2-06T06:33:10Z
2022-02-06T04:34:40Z,42.805,6.029,13.2998,4.60036,2470.04,2022-2-06T06:36:13Z
2022-02-06T04:37:43Z,42.805,6.029,13.2999,4.60039,2470.063,2022-2-06T06:39:16Z
2022-02-06T04:40:46Z,42.805,6.029,13.2996,4.60039,2470.063,2022-2-06T06:42:19Z
2022-02-06T04:43:50Z,42.805,6.029,13.3002,4.60045,2470.017,2022-2-06T06:45:22Z
2022-02-06T04:46:53Z,42.805,6.029,13.3000,4.60036,2470.053,2022-2-06T06:48:25Z
2022-02-06T04:49:56Z,42.805,6.029,13.3000,4.60037,2470.03,2022-2-06T06:51:29Z
2022-02-06T04:52:59Z,42.805,6.029,13.3001,4.60050,2470.04,2022-2-06T06:54:32Z
2022-02-06T04:56:02Z,42.805,6.029,13.3002,4.60052,2470.053,2022-2-06T06:57:35Z
2022-02-06T04:59:05Z,42.805,6.029,13.3011,4.60062,2470.077,2022-2-06T07:00:38Z
2022-02-06T05:02:08Z,42.805,6.029,13.3011,4.60046,2470.04,2022-2-06T07:03:41Z
2022-02-06T05:05:11Z,42.805,6.029,13.3005,4.60033,2470.053,2022-2-06T07:06:44Z
2022-02-06T05:08:14Z,42.805,6.029,13.3009,4.60040,2470.04,2022-2-06T07:09:47Z
2022-02-06T05:11:18Z,42.805,6.029,13.3004,4.60041,2470.053,2022-2-06T07:12:50Z
2022-02-06T05:14:21Z,42.805,6.029,13.3000,4.60039,2470.053,2022-2-06T07:15:53Z
2022-02-06T05:17:24Z,42.805,6.029,13.3002,4.60033,2470.053,2022-2-06T07:18:57Z
2022-02-06T05:20:27Z,42.805,6.029,13.3008,4.60046,2470.04,2022-2-06T07:22:00Z
2022-02-06T05:23:30Z,42.805,6.029,13.3013,4.60042,2470.04,2022-2-06T07:25:03Z
2022-02-06T05:26:33Z,42.805,6.029,13.3006,4.60046,2470.04,2022-2-06T07:28:06Z
2022-02-06T05:29:36Z,42.805,6.029,13.3004,4.60044,2470.077,2022-2-06T07:31:09Z
2022-02-06T05:32:39Z,42.805,6.029,13.3002,4.60040,2470.053,2022-2-06T07:34:12Z
2022-02-06T05:35:43Z,42.805,6.029,13.3004,4.60041,2470.053,2022-2-06T07:37:15Z
2022-02-06T05:38:46Z,42.805,6.029,13.3004,4.60063,2470.04,2022-2-06T07:40:18Z
2022-02-06T05:41:49Z,42.805,6.029,13.3002,4.60049,2470.053,2022-2-06T07:43:22Z
2022-02-06T05:44:52Z,42.805,6.029,13.3015,4.60057,2470.1,2022-2-06T07:46:25Z
2022-02-06T05:47:55Z,42.805,6.029,13.3002,4.60040,2470.053,2022-2-06T07:49:28Z
2022-02-06T05:50:58Z,42.805,6.029,13.3003,4.60039,2470.063,2022-2-06T07:52:31Z
2022-02-06T05:54:01Z,42.805,6.029,13.3008,4.60041,2470.053,2022-2-06T07:55:34Z
2022-02-06T05:57:04Z,42.805,6.029,13.3000,4.60058,2470.077,2022-2-06T07:58:37Z
2022-02-06T06:00:07Z,42.805,6.029,13.3000,4.60047,2470.063,2022-2-06T08:01:40Z
2022-02-06T06:03:11Z,42.805,6.029,13.3006,4.60041,2470.087,2022-2-06T08:04:43Z
2022-02-06T06:06:14Z,42.805,6.029,13.3006,4.60061,2470.1,2022-2-06T08:07:46Z
2022-02-06T06:09:17Z,42.805,6.029,13.3014,4.60054,2470.063,2022-2-06T08:10:50Z
2022-02-06T06:12:20Z,42.805,6.029,13.3014,4.60067,2470.077,2022-2-06T08:13:53Z
2022-02-06T06:15:23Z,42.805,6.029,13.3001,4.60040,2470.063,2022-2-06T08:16:56Z
2022-02-06T06:18:26Z,42.805,6.029,13.3006,4.60044,2470.063,2022-2-06T08:19:59Z
2022-02-06T06:21:29Z,42.805,6.029,13.3000,4.60039,2470.087,2022-2-06T08:23:02Z
2022-02-06T06:24:32Z,42.805,6.029,13.3006,4.60044,2470.11,2022-2-06T08:26:05Z
2022-02-06T06:27:36Z,42.805,6.029,13.3003,4.60059,2470.063,2022-2-06T08:29:08Z
2022-02-06T06:30:39Z,42.805,6.029,13.3008,4.60066,2470.077,2022-2-06T08:32:11Z
2022-02-06T06:33:42Z,42.805,6.029,13.3010,4.60062,2470.063,2022-2-06T08:35:15Z
2022-02-06T06:36:45Z,42.805,6.029,13.3008,4.60066,2470.1,2022-2-06T08:38:18Z
2022-02-06T06:39:48Z,42.805,6.029,13.3000,4.60057,2470.087,2022-2-06T08:41:21Z
2022-02-06T06:42:51Z,42.805,6.029,13.3011,4.60044,2470.11,2022-2-06T08:44:24Z
2022-02-06T06:45:54Z,42.805,6.029,13.3009,4.60070,2470.11,2022-2-06T08:47:27Z
2022-02-06T06:48:57Z,42.805,6.029,13.3002,4.60053,2470.147,2022-2-06T08:50:30Z
2022-02-06T06:52:00Z,42.805,6.029,13.3007,4.60062,2470.124,2022-2-06T08:53:33Z
2022-02-06T06:55:04Z,42.805,6.029,13.3008,4.60042,2470.11,2022-2-06T08:56:36Z
2022-02-06T06:58:07Z,42.805,6.029,13.3004,4.60050,2470.124,2022-2-06T08:59:39Z
2022-02-06T07:01:10Z,42.805,6.029,13.3006,4.60046,2470.147,2022-2-06T09:02:43Z
2022-02-06T07:04:13Z,42.805,6.029,13.3019,4.60056,2470.133,2022-2-06T09:05:46Z
2022-02-06T07:07:16Z,42.805,6.029,13.3004,4.60048,2470.133,2022-2-06T09:08:49Z
2022-02-06T07:10:19Z,42.805,6.029,13.3005,4.60038,2470.133,2022-2-06T09:11:52Z
2022-02-06T07:13:22Z,42.805,6.029,13.3015,4.60075,2470.143,2022-2-06T09:14:55Z
2022-02-06T07:16:25Z,42.805,6.029,13.3014,4.60071,2470.156,2022-2-06T09:17:58Z
2022-02-06T07:19:29Z,42.805,6.029,13.3011,4.60064,2470.156,2022-2-06T09:21:01Z
2022-02-06T07:22:32Z,42.805,6.029,13.3015,4.60067,2470.147,2022-2-06T09:24:04Z
2022-02-06T07:25:35Z,42.805,6.029,13.3006,4.60063,2470.156,2022-2-06T09:27:08Z
2022-02-06T07:28:38Z,42.805,6.029,13.3012,4.60054,2470.171,2022-2-06T09:30:11Z
2022-02-06T07:31:41Z,42.805,6.029,13.3014,4.60050,2470.171,2022-2-06T09:33:14Z
2022-02-06T07:34:44Z,42.805,6.029,13.3009,4.60046,2470.18,2022-2-06T09:36:17Z
2022-02-06T07:37:47Z,42.805,6.029,13.3007,4.60055,2470.194,2022-2-06T09:39:20Z
2022-02-06T07:40:50Z,42.805,6.029,13.3003,4.60045,2470.18,2022-2-06T09:42:23Z
2022-02-06T07:43:53Z,42.805,6.029,13.3004,4.60052,2470.133,2022-2-06T09:45:26Z
2022-02-06T07:46:57Z,42.805,6.029,13.3005,4.60062,2470.18,2022-2-06T09:48:29Z
2022-02-06T07:50:00Z,42.805,6.029,13.3000,4.60041,2470.18,2022-2-06T09:51:33Z
2022-02-06T07:53:03Z,42.805,6.029,13.3005,4.60055,2470.203,2022-2-06T09:54:36Z
2022-02-06T07:56:06Z,42.805,6.029,13.3001,4.60046,2470.203,2022-2-06T09:57:39Z
2022-02-06T08:23:08Z,42.805,6.029,13.3002,4.60052,2470.227,2022-2-06T10:24:41Z
2022-02-06T08:26:11Z,42.805,6.029,13.3008,4.60054,2470.264,2022-2-06T10:27:44Z
2022-02-06T08:29:14Z,42.805,6.029,13.3003,4.60058,2470.31,2022-2-06T10:30:47Z
2022-02-06T08:32:17Z,42.805,6.029,13.3004,4.60059,2470.264,2022-2-06T10:33:50Z
2022-02-06T08:35:20Z,42.805,6.029,13.3005,4.60058,2470.25,2022-2-06T10:36:53Z
2022-02-06T08:38:24Z,42.805,6.029,13.3014,4.60054,2470.217,2022-2-06T10:39:56Z
2022-02-06T08:41:27Z,42.805,6.029,13.3001,4.60046,2470.203,2022-2-06T10:42:59Z
2022-02-06T08:44:30Z,42.805,6.029,13.3009,4.60050,2470.18,2022-2-06T10:46:03Z
2022-02-06T08:47:33Z,42.805,6.029,13.3011,4.60072,2470.203,2022-2-06T10:49:06Z
2022-02-06T08:50:36Z,42.805,6.029,13.3001,4.60051,2470.217,2022-2-06T10:52:09Z
2022-02-06T08:53:39Z,42.805,6.029,13.3006,4.60057,2470.18,2022-2-06T10:55:12Z
2022-02-06T08:56:42Z,42.805,6.029,13.3010,4.60079,2470.217,2022-2-06T10:58:15Z
2022-02-06T08:59:45Z,42.805,6.029,13.3004,4.60069,2470.156,2022-2-06T11:01:18Z
2022-02-06T09:02:48Z,42.805,6.029,13.3011,4.60066,2470.203,2022-2-06T11:04:21Z
2022-02-06T09:05:52Z,42.805,6.029,13.3015,4.60061,2470.18,2022-2-06T11:07:24Z
2022-02-06T09:08:55Z,42.805,6.029,13.3009,4.60062,2470.203,2022-2-06T11:10:28Z
2022-02-06T09:11:58Z,42.805,6.029,13.3017,4.60084,2470.194,2022-2-06T11:13:31Z
2022-02-06T09:15:01Z,42.805,6.029,13.3002,4.60061,2470.194,2022-2-06T11:16:34Z
2022-02-06T09:18:04Z,42.805,6.029,13.3013,4.60070,2470.217,2022-2-06T11:19:37Z
2022-02-06T09:21:07Z,42.805,6.029,13.3012,4.60062,2470.194,2022-2-06T11:22:40Z
2022-02-06T09:24:10Z,42.805,6.029,13.3004,4.60079,2470.156,2022-2-06T11:25:43Z
2022-02-06T09:27:13Z,42.805,6.029,13.3014,4.60066,2470.171,2022-2-06T11:28:46Z
2022-02-06T09:30:17Z,42.805,6.029,13.3010,4.60065,2470.171,2022-2-06T11:31:49Z
2022-02-06T09:33:20Z,42.805,6.029,13.3013,4.60073,2470.156,2022-2-06T11:34:53Z
2022-02-06T09:36:23Z,42.805,6.029,13.3019,4.60058,2470.18,2022-2-06T11:37:56Z
2022-02-06T09:39:26Z,42.805,6.029,13.3011,4.60066,2470.156,2022-2-06T11:40:59Z
2022-02-06T09:42:29Z,42.805,6.029,13.3010,4.60078,2470.171,2022-2-06T11:44:02Z
2022-02-06T09:45:32Z,42.805,6.029,13.3011,4.60075,2470.156,2022-2-06T11:47:05Z
2022-02-06T09:48:35Z,42.805,6.029,13.3018,4.60081,2470.194,2022-2-06T11:50:08Z
2022-02-06T09:51:38Z,42.805,6.029,13.3008,4.60074,2470.194,2022-2-06T11:53:11Z
2022-02-06T09:54:42Z,42.805,6.029,13.3016,4.60064,2470.18,2022-2-06T11:56:14Z
2022-02-06T09:57:45Z,42.805,6.029,13.3010,4.60065,2470.18,2022-2-06T11:59:18Z
2022-02-06T10:00:48Z,42.805,6.029,13.3016,4.60076,2470.18,2022-2-06T12:02:21Z
2022-02-06T10:03:51Z,42.805,6.029,13.3003,4.60059,2470.18,2022-2-06T12:05:24Z
2022-02-06T10:06:54Z,42.805,6.029,13.3027,4.60089,2470.18,2022-2-06T12:08:27Z
2022-02-06T10:09:57Z,42.805,6.029,13.3009,4.60059,2470.156,2022-2-06T12:11:30Z
2022-02-06T10:13:00Z,42.805,6.029,13.3009,4.60051,2470.18,2022-2-06T12:14:33Z
2022-02-06T10:16:03Z,42.805,6.029,13.3006,4.60055,2470.171,2022-2-06T12:17:36Z
2022-02-06T10:19:07Z,42.805,6.029,13.2998,4.60067,2470.171,2022-2-06T12:20:39Z
2022-02-06T10:22:10Z,42.805,6.029,13.3009,4.60072,2470.156,2022-2-06T12:23:42Z
2022-02-06T10:25:13Z,42.805,6.029,13.3011,4.60073,2470.156,2022-2-06T12:26:46Z
2022-02-06T10:28:16Z,42.805,6.029,13.3006,4.60066,2470.217,2022-2-06T12:29:49Z
2022-02-06T10:31:19Z,42.805,6.029,13.3010,4.60074,2470.18,2022-2-06T12:32:52Z
2022-02-06T10:34:22Z,42.805,6.029,13.3011,4.60057,2470.18,2022-2-06T12:35:55Z
2022-02-06T10:37:25Z,42.805,6.029,13.3011,4.60072,2470.217,2022-2-06T12:38:58Z
2022-02-06T10:40:28Z,42.805,6.029,13.3011,4.60070,2470.203,2022-2-06T12:42:01Z
2022-02-06T10:43:32Z,42.805,6.029,13.3004,4.60081,2470.194,2022-2-06T12:45:04Z
2022-02-06T10:46:35Z,42.805,6.029,13.3019,4.60072,2470.203,2022-2-06T12:48:07Z
2022-02-06T10:49:38Z,42.805,6.029,13.3011,4.60061,2470.18,2022-2-06T12:51:11Z
2022-02-06T10:52:41Z,42.805,6.029,13.3009,4.60062,2470.217,2022-2-06T12:54:14Z
2022-02-06T10:55:44Z,42.805,6.029,13.3007,4.60057,2470.171,2022-2-06T12:57:17Z
2022-02-06T10:58:47Z,42.805,6.029,13.3011,4.60069,2470.217,2022-2-06T13:00:20Z
2022-02-06T11:01:50Z,42.805,6.029,13.3004,4.60064,2470.18,2022-2-06T13:03:23Z
2022-02-06T11:04:53Z,42.805,6.029,13.3010,4.60074,2470.203,2022-2-06T13:06:26Z
2022-02-06T11:07:56Z,42.805,6.029,13.3014,4.60070,2470.203,2022-2-06T13:09:29Z
2022-02-06T11:11:00Z,42.805,6.029,13.3002,4.60064,2470.18,2022-2-06T13:12:32Z
2022-02-06T11:14:03Z,42.805,6.029,13.3015,4.60078,2470.18,2022-2-06T13:15:36Z
2022-02-06T11:17:06Z,42.805,6.029,13.3009,4.60062,2470.18,2022-2-06T13:18:39Z
2022-02-06T11:20:09Z,42.805,6.029,13.3019,4.60069,2470.227,2022-2-06T13:21:42Z
2022-02-06T11:23:12Z,42.805,6.029,13.3007,4.60066,2470.18,2022-2-06T13:24:45Z
2022-02-06T11:26:15Z,42.805,6.029,13.3011,4.60070,2470.217,2022-2-06T13:27:48Z
2022-02-06T11:29:18Z,42.805,6.029,13.3006,4.60069,2470.18,2022-2-06T13:30:51Z
2022-02-06T11:32:21Z,42.805,6.029,13.3014,4.60070,2470.194,2022-2-06T13:33:54Z
2022-02-06T11:35:25Z,42.805,6.029,13.3011,4.60066,2470.227,2022-2-06T13:36:57Z
2022-02-06T11:38:28Z,42.805,6.029,13.3007,4.60057,2470.203,2022-2-06T13:40:01Z
2022-02-06T11:41:31Z,42.805,6.029,13.3014,4.60060,2470.18,2022-2-06T13:43:04Z
2022-02-06T11:44:34Z,42.805,6.029,13.3004,4.60062,2470.217,2022-2-06T13:46:07Z
2022-02-06T11:47:37Z,42.805,6.029,13.3006,4.60074,2470.227,2022-2-06T13:49:10Z
2022-02-06T11:50:40Z,42.805,6.029,13.3004,4.60058,2470.217,2022-2-06T13:52:13Z
2022-02-06T11:53:43Z,42.805,6.029,13.3014,4.60067,2470.203,2022-2-06T13:55:16Z
2022-02-06T11:56:46Z,42.805,6.029,13.3015,4.60079,2470.227,2022-2-06T13:58:19Z
2022-02-06T11:59:50Z,42.805,6.029,13.3011,4.60062,2470.264,2022-2-06T14:01:22Z
2022-02-06T12:02:53Z,42.805,6.029,13.3011,4.60069,2470.203,2022-2-06T14:04:25Z
2022-02-06T12:05:56Z,42.805,6.029,13.3005,4.60077,2470.203,2022-2-06T14:07:29Z
2022-02-06T12:08:59Z,42.805,6.029,13.3009,4.60067,2470.203,2022-2-06T14:10:32Z
2022-02-06T12:12:02Z,42.805,6.029,13.3012,4.60075,2470.194,2022-2-06T14:13:35Z
2022-02-06T12:15:05Z,42.805,6.029,13.3003,4.60063,2470.217,2022-2-06T14:16:38Z
2022-02-06T12:18:08Z,42.805,6.029,13.3010,4.60062,2470.203,2022-2-06T14:19:41Z
2022-02-06T12:21:11Z,42.805,6.029,13.3009,4.60062,2470.203,2022-2-06T14:22:44Z
2022-02-06T12:24:15Z,42.805,6.029,13.3007,4.60073,2470.203,2022-2-06T14:25:47Z
2022-02-06T12:27:18Z,42.805,6.029,13.3006,4.60046,2470.217,2022-2-06T14:28:50Z
2022-02-06T12:30:21Z,42.805,6.029,13.3007,4.60072,2470.24,2022-2-06T14:31:54Z
2022-02-06T12:33:24Z,42.805,6.029,13.3004,4.60052,2470.217,2022-2-06T14:34:57Z
2022-02-06T12:36:27Z,42.805,6.029,13.3011,4.60062,2470.217,2022-2-06T14:38:00Z
2022-02-06T12:39:30Z,42.805,6.029,13.3000,4.60057,2470.194,2022-2-06T14:41:03Z
2022-02-06T12:42:33Z,42.805,6.029,13.3009,4.60064,2470.18,2022-2-06T14:44:06Z
2022-02-06T12:45:36Z,42.805,6.029,13.3008,4.60071,2470.203,2022-2-06T14:47:09Z
2022-02-06T12:48:40Z,42.805,6.029,13.3008,4.60072,2470.194,2022-2-06T14:50:12Z
2022-02-06T12:51:43Z,42.805,6.029,13.3009,4.60072,2470.203,2022-2-06T14:53:15Z
2022-02-06T12:54:46Z,42.805,6.029,13.3015,4.60072,2470.203,2022-2-06T14:56:19Z
2022-02-06T12:57:49Z,42.805,6.029,13.3009,4.60063,2470.194,2022-2-06T14:59:22Z
2022-02-06T13:00:52Z,42.805,6.029,13.3024,4.60042,2470.217,2022-2-06T15:02:25Z
2022-02-06T13:03:55Z,42.805,6.029,13.3007,4.60056,2470.203,2022-2-06T15:05:28Z
2022-02-06T13:06:58Z,42.805,6.029,13.3014,4.60066,2470.18,2022-2-06T15:08:31Z
2022-02-06T13:10:01Z,42.805,6.029,13.3009,4.60046,2470.18,2022-2-06T15:11:34Z
2022-02-06T13:13:04Z,42.805,6.029,13.3004,4.60059,2470.203,2022-2-06T15:14:37Z
2022-02-06T13:16:08Z,42.805,6.029,13.3012,4.60062,2470.217,2022-2-06T15:17:40Z
2022-02-06T13:19:11Z,42.805,6.029,13.3014,4.60049,2470.18,2022-2-06T15:20:44Z
2022-02-06T13:22:14Z,42.805,6.029,13.3007,4.60078,2470.227,2022-2-06T15:23:47Z
2022-02-06T13:25:17Z,42.805,6.029,13.3010,4.60067,2470.18,2022-2-06T15:26:50Z
2022-02-06T13:28:20Z,42.805,6.029,13.3005,4.60072,2470.18,2022-2-06T15:29:53Z
2022-02-06T13:31:23Z,42.805,6.029,13.3011,4.60081,2470.133,2022-2-06T15:32:56Z
2022-02-06T13:34:26Z,42.805,6.029,13.2999,4.60058,2470.18,2022-2-06T15:35:59Z
2022-02-06T13:37:29Z,42.805,6.029,13.3010,4.60067,2470.171,2022-2-06T15:39:02Z
2022-02-06T13:40:33Z,42.805,6.029,13.3004,4.60082,2470.194,2022-2-06T15:42:05Z
2022-02-06T13:43:36Z,42.805,6.029,13.3002,4.60058,2470.147,2022-2-06T15:45:09Z
2022-02-06T13:46:39Z,42.805,6.029,13.3007,4.60055,2470.147,2022-2-06T15:48:12Z
2022-02-06T13:49:42Z,42.805,6.029,13.3006,4.60066,2470.18,2022-2-06T15:51:15Z
2022-02-06T13:52:45Z,42.805,6.029,13.3007,4.60072,2470.203,2022-2-06T15:54:18Z
2022-02-06T13:55:48Z,42.805,6.029,13.3012,4.60060,2470.156,2022-2-06T15:57:21Z
2022-02-06T13:58:51Z,42.805,6.029,13.3005,4.60054,2470.203,2022-2-06T16:00:24Z
2022-02-06T14:01:54Z,42.805,6.029,13.3000,4.60047,2470.171,2022-2-06T16:03:27Z
2022-02-06T14:04:58Z,42.805,6.029,13.2999,4.60052,2470.18,2022-2-06T16:06:30Z
2022-02-06T14:08:01Z,42.805,6.029,13.3004,4.60061,2470.133,2022-2-06T16:09:33Z
2022-02-06T14:11:04Z,42.805,6.029,13.3010,4.60068,2470.18,2022-2-06T16:12:37Z
2022-02-06T14:14:07Z,42.805,6.029,13.3005,4.60058,2470.171,2022-2-06T16:15:40Z
2022-02-06T14:17:10Z,42.805,6.029,13.3001,4.60044,2470.156,2022-2-06T16:18:43Z
2022-02-06T14:20:13Z,42.805,6.029,13.3000,4.60039,2470.156,2022-2-06T16:21:46Z
2022-02-06T14:23:16Z,42.805,6.029,13.3001,4.60033,2470.18,2022-2-06T16:24:49Z
2022-02-06T14:26:19Z,42.805,6.029,13.3006,4.60076,2470.194,2022-2-06T16:27:52Z
2022-02-06T14:29:23Z,42.805,6.029,13.3005,4.60044,2470.133,2022-2-06T16:30:55Z
2022-02-06T14:32:26Z,42.805,6.029,13.3009,4.60054,2470.171,2022-2-06T16:33:58Z
2022-02-06T14:35:29Z,42.805,6.029,13.3006,4.60052,2470.156,2022-2-06T16:37:02Z
2022-02-06T14:38:32Z,42.805,6.029,13.3011,4.60056,2470.1,2022-2-06T16:40:05Z
2022-02-06T14:41:35Z,42.805,6.029,13.3011,4.60052,2470.156,2022-2-06T16:43:08Z
2022-02-06T14:44:38Z,42.805,6.029,13.3004,4.60062,2470.147,2022-2-06T16:46:11Z
2022-02-06T14:47:41Z,42.805,6.029,13.3011,4.60061,2470.147,2022-2-06T16:49:14Z
2022-02-06T14:50:44Z,42.805,6.029,13.3006,4.60052,2470.124,2022-2-06T16:52:17Z
2022-02-06T14:53:47Z,42.805,6.029,13.3004,4.60052,2470.133,2022-2-06T16:55:20Z
2022-02-06T14:56:51Z,42.805,6.029,13.3008,4.60059,2470.124,2022-2-06T16:58:23Z
2022-02-06T14:59:54Z,42.805,6.029,13.3007,4.60054,2470.11,2022-2-06T17:01:27Z
2022-02-06T15:02:57Z,42.805,6.029,13.3007,4.60051,2470.1,2022-2-06T17:04:30Z
2022-02-06T15:06:00Z,42.805,6.029,13.3004,4.60060,2470.11,2022-2-06T17:07:33Z
2022-02-06T15:09:03Z,42.805,6.029,13.3017,4.60056,2470.11,2022-2-06T17:10:36Z
2022-02-06T15:12:06Z,42.805,6.029,13.3004,4.60058,2470.11,2022-2-06T17:13:39Z
2022-02-06T15:15:09Z,42.805,6.029,13.3005,4.60063,2470.087,2022-2-06T17:16:42Z
2022-02-06T15:18:12Z,42.805,6.029,13.3006,4.60055,2470.124,2022-2-06T17:19:45Z
2022-02-06T15:21:16Z,42.805,6.029,13.3009,4.60076,2470.133,2022-2-06T17:22:48Z
2022-02-06T15:24:19Z,42.805,6.029,13.3000,4.60063,2470.11,2022-2-06T17:25:52Z
2022-02-06T15:27:22Z,42.805,6.029,13.2999,4.60042,2470.1,2022-2-06T17:28:55Z
2022-02-06T15:30:25Z,42.805,6.029,13.2996,4.60060,2470.11,2022-2-06T17:31:58Z
2022-02-06T15:33:28Z,42.805,6.029,13.3008,4.60074,2470.124,2022-2-06T17:35:01Z
2022-02-06T15:36:31Z,42.805,6.029,13.3006,4.60059,2470.063,2022-2-06T17:38:04Z